When you browse on this site, cookies collect data to enhance your experience and personalize the content and advertising you see.
Visit our Privacy Policy to learn more. By continuing to use the site, you agree to this use of cookies and data.
  • în România
  • Lista ţărilor
  • Pe 7 zile
  • Temperatura apei
  • Meteo pe hartă
  • Widget-uri
  • user-avatar
    Intrare

    Meteo pe oră la Thimphu

    Astăzi, 25 Mai, Luni

    Timp Temperatura Precipitaţii Vânt Presiune Umiditate
    00:00 +10°C° 0 mm 1 m/s 524 mmHg 96%
    01:00 +10°C° 0.2 mm 1 m/s 523 mmHg 96%
    02:00 +10°C° 0.2 mm 1 m/s 523 mmHg 96%
    03:00 +10°C° 0.2 mm 1 m/s 522 mmHg 95%
    04:00 +10°C° 0.1 mm 1 m/s 523 mmHg 95%
    05:00 +10°C° 0.1 mm 1 m/s 523 mmHg 95%
    06:00 +10°C° 0 mm 1 m/s 524 mmHg 95%
    07:00 +12°C° 0.1 mm 1 m/s 525 mmHg 88%
    08:00 +13°C° 0.1 mm 1 m/s 526 mmHg 82%
    09:00 +15°C° 0.1 mm 1 m/s 527 mmHg 76%
    10:00 +16°C° 0.4 mm 2 m/s 527 mmHg 73%
    11:00 +16°C° 0.4 mm 2 m/s 527 mmHg 71%
    12:00 +17°C° 0 mm 3 m/s 527 mmHg 71%
    13:00 +16°C° 0.7 mm 2 m/s 527 mmHg 71%
    14:00 +16°C° 0.7 mm 2 m/s 526 mmHg 71%
    15:00 +16°C° 0.7 mm 2 m/s 525 mmHg 72%
    16:00 +15°C° 0.4 mm 2 m/s 525 mmHg 76%
    17:00 +14°C° 0.4 mm 2 m/s 524 mmHg 81%
    18:00 +13°C° 0 mm 2 m/s 524 mmHg 84%
    19:00 +10°C° 0.1 mm 2 m/s 523 mmHg 87%
    20:00 +9°C° 0.1 mm 2 m/s 523 mmHg 90%
    21:00 +8°C° 0.1 mm 2 m/s 523 mmHg 94%
    22:00 +9°C° 0.1 mm 1 m/s 523 mmHg 93%
    23:00 +9°C° 0.1 mm 1 m/s 523 mmHg 92%

    Mâine, 26 Mai, Marţi

    Timp Temperatura Precipitaţii Vânt Presiune Umiditate
    00:00 +9°C° 0.1 mm 1 m/s 523 mmHg 91%
    01:00 +9°C° 0 mm 1 m/s 523 mmHg 91%
    02:00 +9°C° 0 mm 1 m/s 523 mmHg 91%
    03:00 +8°C° 0 mm 1 m/s 522 mmHg 90%
    04:00 +8°C° 0 mm 1 m/s 522 mmHg 89%
    05:00 +8°C° 0 mm 1 m/s 523 mmHg 88%
    06:00 +8°C° 0 mm 1 m/s 523 mmHg 87%
    07:00 +11°C° 0 mm 1 m/s 524 mmHg 77%
    08:00 +13°C° 0 mm 1 m/s 526 mmHg 68%
    09:00 +16°C° 0 mm 2 m/s 528 mmHg 58%
    10:00 +16°C° 0.5 mm 2 m/s 528 mmHg 61%
    11:00 +16°C° 0.5 mm 2 m/s 527 mmHg 63%
    12:00 +16°C° 0.5 mm 2 m/s 527 mmHg 66%
    13:00 +16°C° 0.7 mm 2 m/s 527 mmHg 66%
    14:00 +16°C° 0.7 mm 2 m/s 526 mmHg 67%
    15:00 +15°C° 0.7 mm 2 m/s 525 mmHg 68%
    16:00 +14°C° 0.6 mm 2 m/s 525 mmHg 72%
    17:00 +13°C° 0.6 mm 2 m/s 524 mmHg 76%
    18:00 +12°C° 0.6 mm 1 m/s 523 mmHg 80%
    19:00 +11°C° 0.2 mm 1 m/s 523 mmHg 82%
    20:00 +10°C° 0.2 mm 1 m/s 523 mmHg 84%
    21:00 +9°C° 0.2 mm 1 m/s 523 mmHg 86%
    22:00 +8°C° 0.1 mm 1 m/s 523 mmHg 87%
    23:00 +8°C° 0.1 mm 1 m/s 523 mmHg 88%

    Poimâine, 27 Mai, Miercuri

    Timp Temperatura Precipitaţii Vânt Presiune Umiditate
    00:00 +8°C° 0.1 mm 1 m/s 522 mmHg 89%
    01:00 +8°C° 0.2 mm 1 m/s 522 mmHg 90%
    02:00 +8°C° 0.2 mm 1 m/s 522 mmHg 90%
    03:00 +8°C° 0.2 mm 1 m/s 522 mmHg 91%
    04:00 +8°C° 0.2 mm 1 m/s 522 mmHg 90%
    05:00 +8°C° 0.2 mm 1 m/s 523 mmHg 90%
    06:00 +9°C° 0.2 mm 1 m/s 523 mmHg 90%
    07:00 +10°C° 0.1 mm 1 m/s 524 mmHg 83%
    08:00 +12°C° 0.1 mm 1 m/s 525 mmHg 76%
    09:00 +14°C° 0.1 mm 1 m/s 526 mmHg 69%
    10:00 +15°C° 0.6 mm 1 m/s 526 mmHg 68%
    11:00 +15°C° 0.6 mm 1 m/s 527 mmHg 67%
    12:00 +16°C° 0.6 mm 2 m/s 527 mmHg 65%
    13:00 +15°C° 1.6 mm 2 m/s 526 mmHg 70%
    14:00 +15°C° 1.6 mm 2 m/s 525 mmHg 75%
    15:00 +14°C° 1.6 mm 2 m/s 525 mmHg 79%
    16:00 +13°C° 1.5 mm 1 m/s 524 mmHg 83%
    17:00 +11°C° 1.5 mm 1 m/s 523 mmHg 87%
    18:00 +10°C° 1.5 mm 1 m/s 522 mmHg 90%
    19:00 +10°C° 0.3 mm 1 m/s 522 mmHg 89%
    20:00 +9°C° 0.3 mm 1 m/s 523 mmHg 88%
    21:00 +9°C° 0.3 mm 1 m/s 523 mmHg 87%
    22:00 +9°C° 0 mm 1 m/s 523 mmHg 87%
    23:00 +8°C° 0 mm 1 m/s 523 mmHg 87%

    28 Mai, Joi

    Timp Temperatura Precipitaţii Vânt Presiune Umiditate
    00:00 +8°C° 0 mm 1 m/s 522 mmHg 88%
    01:00 +8°C° 0 mm 1 m/s 522 mmHg 87%
    02:00 +7°C° 0 mm 1 m/s 521 mmHg 87%
    03:00 +7°C° 0 mm 1 m/s 521 mmHg 86%
    04:00 +7°C° 0 mm 1 m/s 521 mmHg 85%
    05:00 +8°C° 0 mm 1 m/s 522 mmHg 83%
    06:00 +8°C° 0 mm 1 m/s 522 mmHg 82%
    07:00 +10°C° 0 mm 1 m/s 524 mmHg 76%
    08:00 +13°C° 0 mm 1 m/s 525 mmHg 70%
    09:00 +15°C° 0 mm 1 m/s 527 mmHg 64%
    10:00 +16°C° 0.4 mm 1 m/s 527 mmHg 64%
    11:00 +16°C° 0.4 mm 2 m/s 527 mmHg 64%
    12:00 +17°C° 0.4 mm 2 m/s 527 mmHg 64%
    13:00 +16°C° 0.9 mm 2 m/s 526 mmHg 68%
    14:00 +15°C° 0.9 mm 2 m/s 526 mmHg 72%
    15:00 +15°C° 0.9 mm 2 m/s 525 mmHg 77%
    16:00 +14°C° 1 mm 2 m/s 524 mmHg 81%
    17:00 +13°C° 1 mm 1 m/s 524 mmHg 84%
    18:00 +12°C° 1 mm 1 m/s 523 mmHg 88%
    19:00 +11°C° 0.5 mm 1 m/s 523 mmHg 88%
    20:00 +10°C° 0.5 mm 1 m/s 523 mmHg 88%
    21:00 +9°C° 0.5 mm 1 m/s 524 mmHg 88%
    22:00 +9°C° 0.3 mm 1 m/s 523 mmHg 89%
    23:00 +8°C° 0.3 mm 1 m/s 523 mmHg 89%

    29 Mai, Vineri

    Timp Temperatura Precipitaţii Vânt Presiune Umiditate
    00:00 +8°C° 0.3 mm 1 m/s 523 mmHg 89%
    01:00 +8°C° 0.1 mm 1 m/s 523 mmHg 90%
    02:00 +8°C° 0.1 mm 1 m/s 523 mmHg 91%
    03:00 +8°C° 0.1 mm 1 m/s 522 mmHg 91%
    04:00 +8°C° 0 mm 1 m/s 523 mmHg 91%
    05:00 +7°C° 0 mm 0 m/s 523 mmHg 90%
    06:00 +8°C° 0 mm 0 m/s 523 mmHg 89%
    07:00 +10°C° 0.1 mm 1 m/s 524 mmHg 84%
    08:00 +12°C° 0.1 mm 1 m/s 525 mmHg 78%
    09:00 +13°C° 0.1 mm 1 m/s 526 mmHg 73%
    10:00 +14°C° 0.4 mm 2 m/s 526 mmHg 72%
    11:00 +14°C° 0.4 mm 2 m/s 527 mmHg 72%
    12:00 +15°C° 0.4 mm 2 m/s 527 mmHg 71%
    13:00 +14°C° 0.9 mm 2 m/s 526 mmHg 76%
    14:00 +14°C° 0.9 mm 2 m/s 525 mmHg 81%
    15:00 +13°C° 0.9 mm 2 m/s 524 mmHg 86%
    16:00 +12°C° 0.6 mm 2 m/s 524 mmHg 88%
    17:00 +12°C° 0.6 mm 1 m/s 523 mmHg 90%
    18:00 +11°C° 0.6 mm 1 m/s 523 mmHg 92%
    19:00 +10°C° 0.2 mm 1 m/s 523 mmHg 93%
    20:00 +8°C° 0.2 mm 0 m/s 523 mmHg 95%
    21:00 +8°C° 0.2 mm 0 m/s 523 mmHg 96%
    22:00 +7°C° 0.1 mm 0 m/s 523 mmHg 96%
    23:00 +7°C° 0.1 mm 0 m/s 523 mmHg 95%

    30 Mai, Sâmbătă

    Timp Temperatura Precipitaţii Vânt Presiune Umiditate
    00:00 +7°C° 0.1 mm 0 m/s 523 mmHg 95%
    01:00 +7°C° 0 mm 0 m/s 523 mmHg 93%
    02:00 +8°C° 0 mm 1 m/s 523 mmHg 92%
    03:00 +7°C° 0 mm 1 m/s 522 mmHg 91%
    04:00 +8°C° 0 mm 1 m/s 523 mmHg 90%
    05:00 +8°C° 0 mm 1 m/s 523 mmHg 89%
    06:00 +8°C° 0 mm 1 m/s 523 mmHg 88%
    07:00 +11°C° 0 mm 1 m/s 525 mmHg 82%
    08:00 +13°C° 0 mm 1 m/s 526 mmHg 75%
    09:00 +15°C° 0 mm 1 m/s 528 mmHg 68%
    10:00 +16°C° 0.3 mm 2 m/s 528 mmHg 69%
    11:00 +16°C° 0.3 mm 2 m/s 528 mmHg 69%
    12:00 +17°C° 0.3 mm 2 m/s 528 mmHg 69%
    13:00 +16°C° 1 mm 2 m/s 527 mmHg 73%
    14:00 +15°C° 1 mm 2 m/s 526 mmHg 78%
    15:00 +15°C° 1 mm 2 m/s 526 mmHg 82%
    16:00 +14°C° 0.8 mm 2 m/s 525 mmHg 86%
    17:00 +13°C° 0.8 mm 1 m/s 525 mmHg 89%
    18:00 +12°C° 0.8 mm 1 m/s 524 mmHg 93%
    19:00 +11°C° 0.3 mm 1 m/s 524 mmHg 94%
    20:00 +10°C° 0.3 mm 0 m/s 524 mmHg 96%
    21:00 +9°C° 0.3 mm 0 m/s 525 mmHg 97%
    22:00 +9°C° 0.3 mm 0 m/s 525 mmHg 97%
    23:00 +9°C° 0.3 mm 0 m/s 525 mmHg 96%
    Arată mai mult